Weather History for K7BM - February, 2013

Change the Weather History Date:

Monday, February 18, 2013

  Actual Average Record
Temperature  
Mean Temperature 20 °F -  
Max Temperature 28 °F - - ()
Min Temperature 12 °F - - ()
Degree Days  
Heating Degree Days 45    
Moisture  
Dew Point -4 °F    
Average Humidity 35    
Maximum Humidity 80    
Minimum Humidity 19    
Precipitation  
Precipitation 0.00 in - - ()
Sea Level Pressure  
Sea Level Pressure 29.89 in    
Wind  
Wind Speed 8 mph (West)    
Max Wind Speed 22 mph    
Max Gust Speed 38 mph    
Visibility 10 miles    
Events Snow    
T = Trace of Precipitation, MM = Missing Value Source: NWS Daily Summary

Daily Weather History Graph

Daily Weather History Graph

Search for Another Location

Airport or City:

Trip Planner

Search our weather history database for the weather conditions in past years. The results will help you decide how hot, cold, wet, or windy it might be!

Date:

Astronomy

Feb. 18, 2013 Rise Set
Actual Time 6:51 AM MST 5:46 PM MST
Civil Twilight 6:24 AM MST 6:13 PM MST
Nautical Twilight 5:53 AM MST 6:44 PM MST
Astronomical Twilight 5:22 AM MST 7:15 PM MST
Moon 11:35 AM MST (2/18) 1:32 AM MST (2/18)
Length of Visible Light 11h 48m
Length of Day
10h 54m
First Quarter, 59% of the Moon is Illuminated
Feb 18
First Quarter
Feb 25
Full
Mar 4
Last Quarter
Mar 11
New
Mar 19
First Quarter

Hourly Weather History & Observations

Time (MST) Temp. Windchill Dew Point Humidity Pressure Visibility Wind Dir Wind Speed Gust Speed Precip Events Conditions
12:16 AM 26.6 °F 20.0 °F 12.2 °F 55% 29.69 in 10.0 mi West 5.8 mph - N/A   Overcast
12:36 AM 24.8 °F 14.6 °F 15.8 °F 69% 29.69 in 5.0 mi SW 10.4 mph - N/A Snow Light Snow
12:56 AM 26.6 °F - 14.0 °F 59% 29.70 in 10.0 mi Calm Calm - N/A   Overcast
1:16 AM 24.8 °F - 14.0 °F 64% 29.70 in 10.0 mi Calm Calm - N/A Snow Light Snow
1:35 AM 24.8 °F - 15.8 °F 69% 29.70 in 10.0 mi Calm Calm - N/A   Overcast
1:56 AM 23.0 °F - 17.6 °F 80% 29.70 in 3.0 mi Calm Calm - N/A Snow Light Snow
2:16 AM 21.2 °F - 15.8 °F 80% 29.70 in 5.0 mi Calm Calm - N/A Snow Light Snow
2:36 AM 23.0 °F - 10.4 °F 59% 29.71 in 7.0 mi Calm Calm - N/A   Overcast
2:56 AM 21.2 °F 8.9 °F 8.6 °F 58% 29.71 in 10.0 mi West 12.7 mph 19.6 mph N/A Snow Light Snow
3:16 AM 21.2 °F 8.9 °F 8.6 °F 58% 29.72 in 3.0 mi WSW 12.7 mph 21.9 mph N/A Snow Light Snow
3:36 AM 19.4 °F 5.0 °F 5.0 °F 54% 29.73 in 7.0 mi WSW 16.1 mph 23.0 mph N/A Snow Light Snow
3:56 AM 19.4 °F 7.9 °F 3.2 °F 49% 29.75 in 10.0 mi West 10.4 mph - N/A   Overcast
4:16 AM 19.4 °F 10.4 °F 3.2 °F 49% 29.76 in 10.0 mi West 6.9 mph 20.7 mph N/A   Overcast
4:36 AM 17.6 °F 10.7 °F 1.4 °F 49% 29.78 in 10.0 mi WNW 4.6 mph 16.1 mph N/A   Overcast
4:55 AM 17.6 °F 12.3 °F 1.4 °F 49% 29.79 in 10.0 mi NNW 3.5 mph - N/A   Mostly Cloudy
5:15 AM 17.6 °F 12.3 °F -0.4 °F 45% 29.80 in 10.0 mi NW 3.5 mph 16.1 mph N/A   Mostly Cloudy
5:36 AM 17.6 °F 5.0 °F -4.0 °F 38% 29.81 in 10.0 mi West 11.5 mph 16.1 mph N/A   Scattered Clouds
5:55 AM 15.8 °F 2.7 °F -5.8 °F 38% 29.82 in 10.0 mi WNW 11.5 mph 18.4 mph N/A   Clear
6:16 AM 14.0 °F 3.9 °F -2.2 °F 49% 29.83 in 10.0 mi NNW 6.9 mph - N/A   Clear
6:35 AM 14.0 °F -2.0 °F -4.0 °F 45% 29.85 in 10.0 mi West 16.1 mph 23.0 mph N/A   Clear
6:55 AM 14.0 °F -0.2 °F -4.0 °F 45% 29.86 in 10.0 mi West 12.7 mph 23.0 mph N/A   Clear
7:16 AM 14.0 °F -2.5 °F -4.0 °F 45% 29.87 in 10.0 mi West 17.3 mph 21.9 mph N/A   Clear
7:36 AM 12.2 °F -3.7 °F -4.0 °F 48% 29.89 in 10.0 mi West 15.0 mph 23.0 mph N/A   Clear
7:55 AM 14.0 °F 2.0 °F -4.0 °F 45% 29.90 in 10.0 mi WNW 9.2 mph 18.4 mph N/A   Clear
8:16 AM 14.0 °F 6.5 °F -4.0 °F 45% 29.91 in 10.0 mi WNW 4.6 mph - N/A   Clear
8:36 AM 14.0 °F 1.2 °F -5.8 °F 41% 29.91 in 10.0 mi WNW 10.4 mph - N/A   Clear
8:56 AM 17.6 °F 5.7 °F -5.8 °F 35% 29.92 in 10.0 mi West 10.4 mph 21.9 mph N/A   Clear
9:16 AM 17.6 °F 7.3 °F -5.8 °F 35% 29.92 in 10.0 mi West 8.1 mph 20.7 mph N/A   Clear
9:36 AM 17.6 °F 3.7 °F -5.8 °F 35% 29.91 in 10.0 mi WSW 13.8 mph 24.2 mph N/A   Clear
9:56 AM 19.4 °F 4.1 °F -5.8 °F 33% 29.92 in 10.0 mi West 18.4 mph 24.2 mph N/A   Clear
10:16 AM 19.4 °F 4.5 °F -5.8 °F 33% 29.92 in 10.0 mi WSW 17.3 mph 25.3 mph N/A   Clear
10:36 AM 19.4 °F 4.5 °F -4.0 °F 36% 29.91 in 10.0 mi WSW 17.3 mph 25.3 mph N/A   Clear
10:56 AM 19.4 °F 2.8 °F -5.8 °F 33% 29.92 in 10.0 mi WSW 21.9 mph 29.9 mph N/A   Clear
11:16 AM 21.2 °F 5.6 °F -5.8 °F 30% 29.93 in 10.0 mi West 20.7 mph 32.2 mph N/A   Clear
11:36 AM 23.0 °F 12.4 °F -5.8 °F 28% 29.92 in 10.0 mi West 10.4 mph 25.3 mph N/A   Clear
11:56 AM 23.0 °F 9.2 °F -7.6 °F 26% 29.91 in 10.0 mi WSW 17.3 mph 29.9 mph N/A   Clear
12:16 PM 23.0 °F 10.6 °F -7.6 °F 26% 29.91 in 10.0 mi West 13.8 mph 31.1 mph N/A   Clear
12:36 PM 26.6 °F 22.6 °F -11.2 °F 19% 29.91 in 10.0 mi West 3.5 mph - N/A   Clear
12:56 PM 26.6 °F 16.2 °F -9.4 °F 21% 29.91 in 10.0 mi West 11.5 mph 26.5 mph N/A   Clear
1:16 PM 26.6 °F 14.3 °F -7.6 °F 22% 29.91 in 10.0 mi West 16.1 mph 27.6 mph N/A   Clear
1:36 PM 26.6 °F 15.2 °F -7.6 °F 22% 29.90 in 10.0 mi West 13.8 mph 34.5 mph N/A   Clear
1:56 PM 26.6 °F 13.1 °F -7.6 °F 22% 29.90 in 10.0 mi West 19.6 mph 29.9 mph N/A   Clear
2:15 PM 28.4 °F 23.3 °F -9.4 °F 19% 29.90 in 10.0 mi NW 4.6 mph 25.3 mph N/A   Clear
2:36 PM 28.4 °F 20.4 °F -9.4 °F 19% 29.90 in 10.0 mi NW 8.1 mph 21.9 mph N/A   Clear
2:56 PM 28.4 °F 23.3 °F -9.4 °F 19% 29.90 in 10.0 mi North 4.6 mph - N/A   Clear
3:15 PM 28.4 °F 20.4 °F -9.4 °F 19% 29.91 in 10.0 mi West 8.1 mph 21.9 mph N/A   Clear
3:36 PM 28.4 °F 18.0 °F -9.4 °F 19% 29.91 in 10.0 mi West 12.7 mph 25.3 mph N/A   Clear
3:56 PM 28.4 °F 21.2 °F -9.4 °F 19% 29.92 in 10.0 mi WNW 6.9 mph 16.1 mph N/A   Clear
4:16 PM 28.4 °F 22.2 °F -9.4 °F 19% 29.91 in 10.0 mi NNW 5.8 mph 21.9 mph N/A   Clear
4:36 PM 26.6 °F 15.7 °F -9.4 °F 21% 29.91 in 10.0 mi WNW 12.7 mph 38.0 mph N/A   Clear
4:56 PM 26.6 °F 15.7 °F -7.6 °F 22% 29.93 in 10.0 mi West 12.7 mph 32.2 mph N/A   Clear
5:16 PM 26.6 °F 19.1 °F -7.6 °F 22% 29.95 in 10.0 mi ESE 6.9 mph - N/A   Clear
5:36 PM 23.0 °F 17.0 °F -5.8 °F 28% 29.96 in 10.0 mi SSW 4.6 mph 17.3 mph N/A   Clear
5:56 PM 24.8 °F 11.1 °F -7.6 °F 24% 29.96 in 10.0 mi SW 18.4 mph 35.7 mph N/A   Clear
6:16 PM 23.0 °F 8.7 °F -7.6 °F 26% 29.97 in 10.0 mi WSW 18.4 mph 32.2 mph N/A   Clear
6:36 PM 23.0 °F 7.6 °F -7.6 °F 26% 29.98 in 10.0 mi West 21.9 mph 32.2 mph N/A   Clear
6:56 PM 23.0 °F 8.3 °F -7.6 °F 26% 29.99 in 10.0 mi West 19.6 mph 31.1 mph N/A   Clear
7:15 PM 23.0 °F 10.6 °F -7.6 °F 26% 30.00 in 10.0 mi West 13.8 mph 24.2 mph N/A   Clear
7:36 PM 23.0 °F 15.8 °F -9.4 °F 24% 30.00 in 10.0 mi WNW 5.8 mph - N/A   Clear
7:56 PM 21.2 °F 11.7 °F -7.6 °F 28% 30.00 in 10.0 mi WNW 8.1 mph - N/A   Clear
8:16 PM 21.2 °F 12.6 °F -5.8 °F 30% 30.00 in 10.0 mi NW 6.9 mph - N/A   Clear
8:36 PM 21.2 °F 12.6 °F -9.4 °F 26% 30.01 in 10.0 mi NW 6.9 mph - N/A   Clear
8:56 PM 19.4 °F 14.3 °F -7.6 °F 30% 30.01 in 10.0 mi NW 3.5 mph - N/A   Clear
9:16 PM 21.2 °F 12.6 °F -9.4 °F 26% 30.02 in 10.0 mi West 6.9 mph - N/A   Clear
9:36 PM 21.2 °F 11.7 °F -11.2 °F 24% 30.02 in 10.0 mi West 8.1 mph - N/A   Clear
9:56 PM 21.2 °F 13.6 °F -11.2 °F 24% 30.02 in 10.0 mi West 5.8 mph - N/A   Clear
10:16 PM 21.2 °F 12.6 °F -13.0 °F 22% 30.02 in 10.0 mi SW 6.9 mph - N/A   Clear
10:36 PM 19.4 °F 10.4 °F -9.4 °F 28% 30.02 in 10.0 mi NW 6.9 mph - N/A   Clear
10:56 PM 19.4 °F 12.8 °F -14.8 °F 21% 30.02 in 10.0 mi West 4.6 mph - N/A   Clear
11:16 PM 21.2 °F - -13.0 °F 22% 30.02 in 10.0 mi Calm Calm - N/A   Clear
11:36 PM 21.2 °F - -9.4 °F 26% 30.02 in 10.0 mi Calm Calm - N/A   Clear
11:55 PM 19.4 °F 14.3 °F -13.0 °F 23% 30.02 in 10.0 mi West 3.5 mph - N/A   Clear